Simultaneous Nadir Overpasses (SNOs) Predictions

Prediction of SNOs between METOP-B and TERRA Satellite Orbit:

Table of predicted SNOs for the next 14.0 days since TLE Epoch: 8/3/2014
Index Date (METOP-B) Time (METOP-B) Lat,Lon (METOP-B) SZA (METOP-B ) Date (TERRA) Time (TERRA) Lat,Lon (TERRA) SZA (TERRA ) Distance(km) Time Diff (sec)
1 08/04/2014 07:47:49 81.33, 110.44 66.82 08/04/2014 07:48:57 81.33, 110.52 66.87 1.40 68
2 08/04/2014 08:38:29 -81.33, -81.79 113.12 08/04/2014 08:38:24 -81.32, -81.92 113.14 2.46 5
3 08/07/2014 03:22:11 81.33, 176.86 67.59 08/07/2014 03:23:15 81.33, 176.95 67.64 1.54 64
4 08/07/2014 04:12:51 -81.33, -15.32 112.34 08/07/2014 04:12:42 -81.32, -15.47 112.37 2.71 9
5 08/09/2014 22:56:33 81.33,-116.77 68.40 08/09/2014 22:57:33 81.32,-116.79 68.42 0.76 60
6 08/09/2014 23:47:12 -81.33, 51.11 111.53 08/09/2014 23:46:58 -81.34, 51.20 111.52 1.72 14
7 08/12/2014 18:30:54 81.32, -50.44 69.23 08/12/2014 18:31:49 81.32, -50.30 69.27 2.36 55
8 08/12/2014 19:21:34 -81.33, 117.48 110.69 08/12/2014 19:21:16 -81.32, 117.34 110.72 2.71 18
9 08/15/2014 14:05:15 81.33, 16.25 70.14 08/15/2014 14:06:05 81.34, 16.41 70.19 2.99 50




NCC Satellite Simultaneous Nadir Overpasses (SNOs) Prediction Service
